This is the latest recevied weather packets stored in our database for station/object KE8ZLU. If no packets are shown the sender has not sent any weather packets the latest 10 day(s).
| Time | Temp. | Humidity | Pressure | Rain* | Wind** | Luminosity | Snow |
|---|---|---|---|---|---|---|---|
| 1778013253 | 11.11° C | 50% | 1009.6 hPa | 0 mm | - | 134 W/m² | - |
| 1778012950 | 11.11° C | 48% | 1009.5 hPa | 0 mm | - | 123 W/m² | - |
| 1778012646 | 11.67° C | 51% | 1009.5 hPa | 0 mm | - | 120 W/m² | - |
| 1778012343 | 11.67° C | 50% | 1009.5 hPa | 0 mm | - | 171 W/m² | - |
| 1778012040 | 11.67° C | 53% | 1009.6 hPa | 0 mm | - | 167 W/m² | - |
| 1778011738 | 11.67° C | 51% | 1009.5 hPa | 0 mm | - | 177 W/m² | - |
| 1778011435 | 11.11° C | 52% | 1009.4 hPa | 0 mm | - | 229 W/m² | - |
| 1778011130 | 11.11° C | 52% | 1009.4 hPa | 0 mm | - | 145 W/m² | - |
| 1778010828 | 11.11° C | 54% | 1009.4 hPa | 0 mm | - | 111 W/m² | - |
| 1778010525 | 11.11° C | 53% | 1009.5 hPa | 0 mm | - | 100 W/m² | - |
| 1778010222 | 11.11° C | 53% | 1009.4 hPa | 0 mm | - | 96 W/m² | - |
| 1778009917 | 11.11° C | 54% | 1009.4 hPa | 0 mm | - | 96 W/m² | - |
| 1778009615 | 11.11° C | 53% | 1009.6 hPa | 0 mm | - | 112 W/m² | - |
| 1778009313 | 11.11° C | 53% | 1009.6 hPa | 0 mm | - | 91 W/m² | - |
| 1778009011 | 11.11° C | 57% | 1009.4 hPa | 0 mm | - | 98 W/m² | - |
| 1778008708 | 11.67° C | 58% | 1009.5 hPa | 0 mm | - | 131 W/m² | - |
| 1778008407 | 11.67° C | 57% | 1009.4 hPa | 0 mm | - | 121 W/m² | - |
| 1778008103 | 11.67° C | 59% | 1009.4 hPa | 0 mm | - | 143 W/m² | - |
| 1778007799 | 11.67° C | 62% | 1009.4 hPa | 0 mm | - | 166 W/m² | - |
| 1778007495 | 11.67° C | 60% | 1009.4 hPa | 0 mm | - | 236 W/m² | - |
| 1778007191 | 11.67° C | 58% | 1009.4 hPa | 0 mm | - | 197 W/m² | - |
| 1778006887 | 11.67° C | 63% | 1009.4 hPa | 0 mm | - | 195 W/m² | - |
| 1778006585 | 11.67° C | 65% | 1009.5 hPa | 0 mm | - | 215 W/m² | - |
| 1778006281 | 11.67° C | 67% | 1009.3 hPa | 0 mm | - | 150 W/m² | - |
| 1778005978 | 11.67° C | 67% | 1009.4 hPa | 0 mm | - | 135 W/m² | - |
* Rain latest hour (hover to see other rain measurements)
** Current wind speed in m/s (hover to see current wind gust speed)